EW3393 Weather Reports


time (UTC)temp
C
wind
direction
speed
KPH
gust
KPH
rain 1hr
cm
rain 24hr
cm
rain mn
cm
humidity
%
barometer
mb
20260509095315 22 319 20.9 25.7 0.00 0.00 0.00 45 1008.3
20260509094832 22 313 20.9 25.7 0.00 0.00 0.00 45 1008.3
20260509094324 22 313 19.3 27.4 0.00 0.00 0.00 45 1008.3
20260509093817 22 296 17.7 30.6 0.00 0.00 0.00 45 1008.4
20260509093329 22 296 24.1 30.6 0.00 0.00 0.00 45 1008.4
20260509092840 22 293 20.9 30.6 0.00 0.00 0.00 45 1008.4
20260509092329 22 305 24.1 30.6 0.00 0.00 0.00 45 1008.4
20260509091823 22 296 20.9 27.4 0.00 0.00 0.00 44 1008.5
20260509091314 23 292 22.5 27.4 0.00 0.00 0.00 42 1008.5
20260509090827 23 296 19.3 29.0 0.00 0.00 0.00 42 1008.5
20260509090321 22 301 19.3 29.0 0.00 0.00 0.00 43 1008.6
20260509085831 22 314 17.7 25.7 0.00 0.00 0.00 45 1008.6
20260509085323 22 300 19.3 24.1 0.00 0.00 0.00 45 1008.7
20260509084815 22 309 17.7 24.1 0.00 0.00 0.00 45 1008.7
20260509084326 23 323 17.7 24.1 0.00 0.00 0.00 44 1008.8
20260509083839 23 308 19.3 25.7 0.00 0.00 0.00 44 1008.8
20260509083330 23 304 20.9 29.0 0.00 0.00 0.00 43 1008.9
20260509082823 23 311 24.1 29.0 0.00 0.00 0.00 42 1008.8
20260509082314 23 313 19.3 24.1 0.00 0.00 0.00 41 1008.8
20260509081831 23 308 20.9 24.1 0.00 0.00 0.00 42 1008.8
20260509081323 23 302 19.3 24.1 0.00 0.00 0.00 42 1008.9
20260509080815 23 305 19.3 24.1 0.00 0.00 0.00 43 1008.9
20260509080347 23 302 17.7 20.9 0.00 0.00 0.00 43 1009.0
20260509075816 23 285 16.1 20.9 0.00 0.00 0.00 42 1009.1
20260509075328 23 277 17.7 22.5 0.00 0.00 0.00 42 1009.1
20260509074820 23 277 17.7 22.5 0.00 0.00 0.00 43 1009.2
20260509074331 23 273 17.7 22.5 0.00 0.00 0.00 43 1009.2
20260509073824 23 285 19.3 22.5 0.00 0.00 0.00 43 1009.2
20260509073319 23 278 12.9 19.3 0.00 0.00 0.00 41 1009.2
20260509072853 23 273 16.1 19.3 0.00 0.00 0.00 42 1009.3
20260509072321 24 292 16.1 19.3 0.00 0.00 0.00 42 1009.3
20260509071814 24 284 14.5 20.9 0.00 0.00 0.00 42 1009.4
20260509071326 24 279 16.1 25.7 0.00 0.00 0.00 41 1009.4
20260509070819 24 268 19.3 30.6 0.00 0.00 0.00 41 1009.5
20260509070329 24 278 24.1 30.6 0.00 0.00 0.00 42 1009.4
20260509065838 24 268 22.5 27.4 0.00 0.00 0.00 41 1009.4
20260509065349 24 288 20.9 30.6 0.00 0.00 0.00 41 1009.5
20260509064821 24 274 20.9 30.6 0.00 0.00 0.00 40 1009.6
20260509064332 24 279 20.9 27.4 0.00 0.00 0.00 40 1009.6
20260509063844 24 285 20.9 27.4 0.00 0.00 0.00 39 1009.6
20260509063319 24 269 17.7 24.1 0.00 0.00 0.00 38 1009.6
20260509062830 25 283 16.1 24.1 0.00 0.00 0.00 38 1009.6
20260509062322 25 288 17.7 27.4 0.00 0.00 0.00 38 1009.6
20260509061815 25 267 20.9 29.0 0.00 0.00 0.00 37 1009.4
20260509061327 25 279 20.9 29.0 0.00 0.00 0.00 38 1009.5
20260509060819 25 294 19.3 27.4 0.00 0.00 0.00 37 1009.5
20260509060330 25 274 19.3 29.0 0.00 0.00 0.00 37 1009.5
20260509055821 25 269 20.9 29.0 0.00 0.00 0.00 38 1009.4
20260509055317 25 295 19.3 24.1 0.00 0.00 0.00 37 1009.5
20260509054829 25 288 17.7 22.5 0.00 0.00 0.00 36 1009.5
20260509054321 25 296 17.7 27.4 0.00 0.00 0.00 36 1009.5
20260509053814 25 306 16.1 27.4 0.00 0.00 0.00 35 1009.4
20260509053325 26 293 17.7 25.7 0.00 0.00 0.00 35 1009.4
20260509052817 26 298 17.7 22.5 0.00 0.00 0.00 34 1009.5
20260509052327 26 264 16.1 20.9 0.00 0.00 0.00 33 1009.5
20260509051820 26 311 12.9 19.3 0.00 0.00 0.00 32 1009.5
20260509051332 26 294 11.3 17.7 0.00 0.00 0.00 31 1009.4
20260509050825 26 301 12.9 19.3 0.00 0.00 0.00 30 1009.5
20260509050321 27 270 14.5 22.5 0.00 0.00 0.00 30 1009.4
20260509045831 27 261 17.7 20.9 0.00 0.00 0.00 29 1009.5
20260509045342 27 251 16.1 22.5 0.00 0.00 0.00 28 1009.4
20260509044814 27 269 14.5 22.5 0.00 0.00 0.00 28 1009.4
20260509044346 27 273 16.1 22.5 0.00 0.00 0.00 27 1009.4
20260509043817 27 284 16.1 33.8 0.00 0.00 0.00 27 1009.4
20260509043328 27 278 19.3 33.8 0.00 0.00 0.00 27 1009.3
20260509042842 27 286 22.5 33.8 0.00 0.00 0.00 28 1009.2
20260509042312 27 263 27.4 37.0 0.00 0.00 0.00 30 1009.2
20260509041825 27 277 27.4 37.0 0.00 0.00 0.00 31 1009.1
20260509041316 27 252 29.0 40.2 0.00 0.00 0.00 32 1009.1
20260509040828 27 278 30.6 40.2 0.00 0.00 0.00 31 1009.1
20260509040323 27 260 30.6 41.8 0.00 0.00 0.00 32 1009.1
20260509035834 27 287 29.0 45.1 0.00 0.00 0.00 31 1009.1
20260509035325 28 273 35.4 45.1 0.00 0.00 0.00 31 1009.0
20260509034818 28 274 33.8 45.1 0.00 0.00 0.00 31 1009.0
20260509034330 28 263 33.8 48.3 0.00 0.00 0.00 30 1008.9
20260509033820 28 299 33.8 48.3 0.00 0.00 0.00 30 1008.9
20260509033330 28 255 35.4 48.3 0.00 0.00 0.00 30 1008.8
20260509032844 28 269 38.6 53.1 0.00 0.00 0.00 30 1008.7
20260509032314 28 281 35.4 53.1 0.00 0.00 0.00 30 1008.7
20260509031827 28 261 37.0 46.7 0.00 0.00 0.00 30 1008.7
20260509031323 29 280 32.2 46.7 0.00 0.00 0.00 29 1008.7
20260509030816 29 267 32.2 48.3 0.00 0.00 0.00 28 1008.5
20260509030325 29 271 37.0 48.3 0.00 0.00 0.00 28 1008.5
20260509025836 30 281 27.4 45.1 0.00 0.00 0.00 28 1008.4
20260509025325 30 279 30.6 48.3 0.00 0.00 0.00 28 1008.3
20260509024817 30 273 35.4 48.3 0.00 0.00 0.00 27 1008.3
20260509024328 30 289 32.2 45.1 0.00 0.00 0.00 27 1008.3
20260509023820 30 309 30.6 48.3 0.00 0.00 0.00 26 1008.3
20260509023330 30 295 37.0 51.5 0.00 0.00 0.00 26 1008.2
20260509022843 30 274 35.4 51.5 0.00 0.00 0.00 26 1008.1
20260509022313 31 292 32.2 41.8 0.00 0.00 0.00 25 1008.1
20260509021829 31 292 32.2 40.2 0.00 0.00 0.00 24 1008.0
20260509021321 31 277 29.0 40.2 0.00 0.00 0.00 23 1008.0
20260509020831 31 283 32.2 41.8 0.00 0.00 0.00 23 1007.9
20260509020323 31 292 33.8 48.3 0.00 0.00 0.00 23 1007.9
20260509015831 32 291 32.2 48.3 0.00 0.00 0.00 22 1007.9
20260509015323 32 317 32.2 45.1 0.00 0.00 0.00 21 1007.8
20260509014816 32 273 29.0 40.2 0.00 0.00 0.00 21 1007.8
20260509014327 32 277 27.4 40.2 0.00 0.00 0.00 21 1007.9
20260509013820 33 281 27.4 40.2 0.00 0.00 0.00 20 1007.7
20260509013352 33 305 27.4 43.5 0.00 0.00 0.00 19 1007.7
20260509012827 33 284 29.0 43.5 0.00 0.00 0.00 20 1007.7
20260509012317 33 299 30.6 46.7 0.00 0.00 0.00 19 1007.8
20260509011830 33 313 32.2 45.1 0.00 0.00 0.00 20 1007.8
20260509011321 33 277 32.2 45.1 0.00 0.00 0.00 19 1007.8
20260509010815 33 294 29.0 45.1 0.00 0.00 0.00 20 1007.7
20260509010327 33 264 33.8 45.1 0.00 0.00 0.00 19 1007.7
20260509005816 34 274 32.2 46.7 0.00 0.00 0.00 19 1007.7
20260509005328 34 274 35.4 46.7 0.00 0.00 0.00 18 1007.6
20260509004825 34 277 32.2 43.5 0.00 0.00 0.00 18 1007.7
20260509004315 35 313 25.7 43.5 0.00 0.00 0.00 18 1007.7
20260509003828 35 284 27.4 45.1 0.00 0.00 0.00 16 1007.6
20260509003319 35 261 32.2 45.1 0.00 0.00 0.00 16 1007.6
20260509002832 35 252 32.2 43.5 0.00 0.00 0.00 16 1007.7
20260509002322 35 277 32.2 48.3 0.00 0.00 0.00 15 1007.7
20260509001815 35 254 35.4 49.9 0.00 0.00 0.00 15 1007.7
20260509001325 35 284 35.4 46.7 0.00 0.00 0.00 15 1007.8
20260509000817 35 273 37.0 49.9 0.00 0.00 0.00 15 1007.8
20260509000313 35 252 37.0 49.9 0.00 0.00 0.00 14 1007.7
20260508235823 36 280 32.2 48.3 0.00 0.00 0.00 14 1007.8
20260508235314 36 265 38.6 48.3 0.00 0.00 0.00 12 1007.8
20260508234826 35 259 33.8 48.3 0.00 0.00 0.00 13 1007.8
20260508234317 36 250 37.0 49.9 0.00 0.00 0.00 13 1007.9
20260508233831 36 260 37.0 46.7 0.00 0.00 0.00 12 1007.9
20260508233324 36 257 35.4 53.1 0.00 0.00 0.00 12 1007.9
20260508232818 36 266 37.0 53.1 0.00 0.00 0.00 12 1007.9
20260508232349 36 248 37.0 51.5 0.00 0.00 0.00 12 1008.0
20260508231845 36 238 32.2 45.1 0.00 0.00 0.00 11 1008.0
20260508231336 36 263 33.8 45.1 0.00 0.00 0.00 12 1008.1
20260508230849 36 255 33.8 45.1 0.00 0.00 0.00 11 1008.1
20260508230320 36 268 32.2 45.1 0.00 0.00 0.00 12 1008.0
20260508225830 36 248 38.6 45.1 0.00 0.00 0.00 12 1008.1
20260508225323 36 260 30.6 43.5 0.00 0.00 0.00 11 1008.2
20260508224817 36 261 33.8 45.1 0.00 0.00 0.00 11 1008.2
20260508224330 36 247 32.2 45.1 0.00 0.00 0.00 11 1008.3
20260508223823 36 268 32.2 41.8 0.00 0.00 0.00 11 1008.4
20260508223319 36 251 30.6 41.8 0.00 0.00 0.00 10 1008.4
20260508222832 36 261 32.2 43.5 0.00 0.00 0.00 11 1008.5
20260508222325 36 267 30.6 45.1 0.00 0.00 0.00 10 1008.5
20260508221819 36 275 29.0 41.8 0.00 0.00 0.00 11 1008.6
20260508221332 36 261 29.0 48.3 0.00 0.00 0.00 10 1008.7
20260508220826 36 250 35.4 48.3 0.00 0.00 0.00 11 1008.7
20260508220318 36 247 33.8 46.7 0.00 0.00 0.00 10 1008.8
20260508215848 36 251 32.2 43.5 0.00 0.00 0.00 10 1008.9
20260508215319 36 269 29.0 40.2 0.00 0.00 0.00 10 1008.9
20260508214815 36 256 30.6 40.2 0.00 0.00 0.00 10 1008.9
20260508214346 36 288 22.5 38.6 0.00 0.00 0.00 10 1009.1
20260508213817 36 247 29.0 37.0 0.00 0.00 0.00 9 1009.1
20260508213349 36 245 29.0 38.6 0.00 0.00 0.00 11 1009.2
20260508212821 36 251 27.4 37.0 0.00 0.00 0.00 10 1009.3
20260508212313 36 257 22.5 43.5 0.00 0.00 0.00 10 1009.4
20260508211826 36 286 27.4 43.5 0.00 0.00 0.00 11 1009.4
20260508211318 36 256 22.5 37.0 0.00 0.00 0.00 10 1009.5
20260508210831 36 252 24.1 37.0 0.00 0.00 0.00 11 1009.5
20260508210343 36 224 22.5 38.6 0.00 0.00 0.00 10 1009.6
20260508205815 36 250 29.0 38.6 0.00 0.00 0.00 11 1009.6
20260508205347 36 251 29.0 37.0 0.00 0.00 0.00 11 1009.7
20260508204839 36 244 29.0 38.6 0.00 0.00 0.00 11 1009.8
20260508204350 36 265 25.7 38.6 0.00 0.00 0.00 11 1009.8
20260508203822 36 234 27.4 38.6 0.00 0.00 0.00 10 1009.8
20260508203335 36 321 24.1 40.2 0.00 0.00 0.00 11 1009.8
20260508202828 36 280 30.6 40.2 0.00 0.00 0.00 12 1009.9
20260508202341 36 270 29.0 38.6 0.00 0.00 0.00 12 1009.9
20260508201814 36 271 25.7 41.8 0.00 0.00 0.00 11 1010.0
20260508201326 36 290 30.6 41.8 0.00 0.00 0.00 12 1010.0
20260508200839 36 274 20.9 40.2 0.00 0.00 0.00 11 1010.1
20260508200350 36 240 27.4 40.2 0.00 0.00 0.00 11 1010.1
20260508195819 36 271 22.5 33.8 0.00 0.00 0.00 11 1010.1
20260508195315 36 278 24.1 33.8 0.00 0.00 0.00 11 1010.2
20260508194828 36 242 17.7 33.8 0.00 0.00 0.00 11 1010.3
20260508194320 36 242 27.4 35.4 0.00 0.00 0.00 11 1010.3
20260508193853 35 271 22.5 35.4 0.00 0.00 0.00 11 1010.4
20260508193323 36 244 17.7 33.8 0.00 0.00 0.00 11 1010.4
20260508192814 35 251 17.7 29.0 0.00 0.00 0.00 12 1010.4
20260508192345 35 263 16.1 32.2 0.00 0.00 0.00 11 1010.5
20260508191817 35 250 16.1 32.2 0.00 0.00 0.00 11 1010.5
20260508191329 35 230 16.1 30.6 0.00 0.00 0.00 11 1010.5
20260508190823 35 226 20.9 30.6 0.00 0.00 0.00 11 1010.6
20260508190319 35 232 17.7 30.6 0.00 0.00 0.00 12 1010.6
20260508185830 35 261 19.3 29.0 0.00 0.00 0.00 11 1010.6
20260508185342 35 257 20.9 24.1 0.00 0.00 0.00 12 1010.6
20260508184814 35 260 16.1 27.4 0.00 0.00 0.00 12 1010.7
20260508184325 35 256 17.7 30.6 0.00 0.00 0.00 11 1010.7
20260508183819 35 262 19.3 30.6 0.00 0.00 0.00 12 1010.7
20260508183331 35 237 14.5 29.0 0.00 0.00 0.00 11 1010.8
20260508182822 34 246 19.3 33.8 0.00 0.00 0.00 12 1010.9
20260508182314 34 238 22.5 33.8 0.00 0.00 0.00 12 1011.0
20260508181831 34 257 19.3 32.2 0.00 0.00 0.00 13 1011.0
20260508181323 34 270 25.7 32.2 0.00 0.00 0.00 13 1010.9
20260508180816 35 245 22.5 30.6 0.00 0.00 0.00 14 1010.9
20260508180326 34 271 24.1 32.2 0.00 0.00 0.00 14 1011.0
20260508175835 34 279 24.1 32.2 0.00 0.00 0.00 16 1011.0
20260508175325 33 269 22.5 38.6 0.00 0.00 0.00 16 1011.0
20260508174818 33 257 27.4 38.6 0.00 0.00 0.00 16 1011.0
20260508174329 33 245 24.1 37.0 0.00 0.00 0.00 17 1011.0
20260508173822 33 271 27.4 40.2 0.00 0.00 0.00 18 1011.0
20260508173333 33 308 27.4 40.2 0.00 0.00 0.00 18 1011.0
20260508172825 32 288 27.4 38.6 0.00 0.00 0.00 18 1010.9
20260508172341 32 275 30.6 38.6 0.00 0.00 0.00 19 1011.0
20260508171833 32 280 29.0 38.6 0.00 0.00 0.00 19 1010.9
20260508171325 32 257 24.1 32.2 0.00 0.00 0.00 21 1011.0
20260508170817 32 281 24.1 30.6 0.00 0.00 0.00 20 1011.0
20260508170349 32 267 25.7 32.2 0.00 0.00 0.00 21 1011.0
20260508165819 32 238 24.1 32.2 0.00 0.00 0.00 20 1011.0
20260508165330 32 285 24.1 33.8 0.00 0.00 0.00 20 1011.0
20260508164824 32 252 25.7 33.8 0.00 0.00 0.00 19 1011.0
20260508164317 31 248 22.5 33.8 0.00 0.00 0.00 21 1011.1
20260508163814 31 274 22.5 29.0 0.00 0.00 0.00 21 1011.1
20260508163325 31 273 22.5 29.0 0.00 0.00 0.00 22 1011.1
20260508162819 31 269 17.7 24.1 0.00 0.00 0.00 24 1011.1
20260508162350 30 311 14.5 24.1 0.00 0.00 0.00 24 1011.1
20260508161822 30 277 19.3 25.7 0.00 0.00 0.00 25 1011.1
20260508161313 30 272 20.9 25.7 0.00 0.00 0.00 26 1011.1
20260508160828 30 296 17.7 29.0 0.00 0.00 0.00 26 1011.1
20260508160320 29 279 22.5 29.0 0.00 0.00 0.00 26 1011.1
20260508155829 29 274 20.9 27.4 0.00 0.00 0.00 27 1011.0
20260508155320 29 275 20.9 27.4 0.00 0.00 0.00 26 1011.0
20260508154819 29 267 19.3 25.7 0.00 0.00 0.00 25 1011.0
20260508154330 28 281 16.1 24.1 0.00 0.00 0.00 25 1011.0
20260508153824 28 275 17.7 27.4 0.00 0.00 0.00 27 1011.1
20260508153316 28 296 19.3 27.4 0.00 0.00 0.00 28 1011.1
20260508152831 27 289 19.3 24.1 0.00 0.00 0.00 29 1011.1
20260508152323 27 275 20.9 24.1 0.00 0.00 0.00 30 1011.1
20260508151817 27 286 17.7 25.7 0.00 0.00 0.00 31 1011.2
20260508151328 26 285 19.3 25.7 0.00 0.00 0.00 33 1011.2
20260508150826 26 281 19.3 25.7 0.00 0.00 0.00 33 1011.2
20260508150318 26 300 20.9 25.7 0.00 0.00 0.00 33 1011.2
20260508145828 26 268 19.3 24.1 0.00 0.00 0.00 33 1011.2
20260508145319 25 273 17.7 24.1 0.00 0.00 0.00 35 1011.2
20260508144853 25 295 20.9 25.7 0.00 0.00 0.00 35 1011.2
20260508144322 25 275 20.9 27.4 0.00 0.00 0.00 34 1011.2
20260508143814 25 298 19.3 25.7 0.00 0.00 0.00 33 1011.2
20260508143345 25 279 19.3 25.7 0.00 0.00 0.00 33 1011.2
20260508142817 24 288 19.3 24.1 0.00 0.00 0.00 35 1011.2
20260508142327 24 290 19.3 24.1 0.00 0.00 0.00 36 1011.2
20260508141819 24 290 17.7 24.1 0.00 0.00 0.00 37 1011.1
20260508141314 24 290 19.3 24.1 0.00 0.00 0.00 37 1011.1
20260508140828 23 303 17.7 25.7 0.00 0.00 0.00 37 1011.0
20260508140320 23 311 20.9 25.7 0.00 0.00 0.00 37 1010.9
20260508135850 23 301 19.3 24.1 0.00 0.00 0.00 39 1010.9
20260508135321 23 293 19.3 24.1 0.00 0.00 0.00 39 1010.8
20260508134816 22 279 19.3 24.1 0.00 0.00 0.00 39 1010.8
20260508134327 22 267 19.3 27.4 0.00 0.00 0.00 39 1010.8
20260508133841 22 283 20.9 27.4 0.00 0.00 0.00 40 1010.8
20260508133332 22 271 20.9 29.0 0.00 0.00 0.00 41 1010.7
20260508132826 22 292 22.5 29.0 0.00 0.00 0.00 41 1010.6
20260508132322 22 297 22.5 27.4 0.00 0.00 0.00 42 1010.6
20260508131816 21 298 20.9 24.1 0.00 0.00 0.00 43 1010.5
20260508131327 21 313 19.3 25.7 0.00 0.00 0.00 44 1010.5
20260508130819 21 305 19.3 25.7 0.00 0.00 0.00 44 1010.5
20260508130331 21 299 19.3 25.7 0.00 0.00 0.00 44 1010.5
20260508125821 21 318 20.9 24.1 0.00 0.00 0.00 46 1010.5
20260508125332 21 311 19.3 22.5 0.00 0.00 0.00 47 1010.4
20260508124845 21 314 19.3 22.5 0.00 0.00 0.00 48 1010.4
20260508124314 20 299 17.7 20.9 0.00 0.00 0.00 49 1010.4
20260508123830 21 301 17.7 22.5 0.00 0.00 0.00 49 1010.4
20260508123321 20 302 17.7 22.5 0.00 0.00 0.00 49 1010.2
20260508122814 20 301 16.1 19.3 0.00 0.00 0.00 49 1010.3
20260508122326 21 279 14.5 19.3 0.00 0.00 0.00 48 1010.2
20260508121818 21 295 16.1 19.3 0.00 0.00 0.00 48 1010.2
20260508121329 21 302 14.5 22.5 0.00 0.00 0.00 47 1010.2
20260508120822 21 272 16.1 24.1 0.00 0.00 0.00 46 1010.1
20260508120352 21 317 19.3 22.5 0.00 0.00 0.00 46 1010.0
20260508115822 21 294 14.5 19.3 0.00 0.00 0.00 45 1010.0
20260508115337 21 298 16.1 20.9 0.00 0.00 0.00 45 1010.0
20260508114827 22 298 17.7 20.9 0.00 0.00 0.00 44 1010.0
20260508114318 22 301 16.1 20.9 0.00 0.00 0.00 42 1010.1
20260508113830 22 309 14.5 20.9 0.00 0.00 0.00 42 1010.1
20260508113321 22 317 11.3 20.9 0.00 0.00 0.00 41 1010.1
20260508112833 22 306 14.5 20.9 0.00 0.00 0.00 40 1010.2
20260508112323 22 301 12.9 19.3 0.00 0.00 0.00 40 1010.1
20260508111837 22 291 6.4 9.7 0.00 0.00 0.00 40 1010.1
20260508111328 21 288 6.4 14.5 0.00 0.00 0.00 40 1010.2
20260508110820 21 295 8.0 20.9 0.00 0.00 0.00 42 1010.1
20260508110314 22 273 12.9 20.9 0.00 0.00 0.00 43 1010.0
20260508105824 21 297 17.7 24.1 0.00 0.00 0.00 45 1010.0
20260508105315 21 290 16.1 24.1 0.00 0.00 0.00 46 1010.0
20260508104847 21 302 17.7 24.1 0.00 0.00 0.00 47 1010.0
20260508104316 21 300 16.1 24.1 0.00 0.00 0.00 47 1010.0
20260508103830 21 306 19.3 24.1 0.00 0.00 0.00 47 1009.9
20260508103321 21 322 17.7 25.7 0.00 0.00 0.00 47 1009.9
20260508102326 21 290 22.5 29.0 0.00 0.00 0.00 47 1009.9
20260508101819 21 302 19.3 24.1 0.00 0.00 0.00 47 1009.9
20260508101315 21 311 17.7 24.1 0.00 0.00 0.00 48 1009.9
20260508100827 21 302 19.3 29.0 0.00 0.00 0.00 47 1009.9
20260508100339 21 281 22.5 29.0 0.00 0.00 0.00 47 1010.0
20260508095827 21 296 22.5 27.4 0.00 0.00 0.00 47 1009.9